Trenton, NJ

3:54 PM EST on February 20, 2017 (GMT -0500)
McGuire Air Force Base

Weather History for KWRI - February, 2013

Change the Weather History Date:

Monday, February 4, 2013

  Actual Average Record
Temperature  
Mean Temperature 24 °F -  
Max Temperature 30 °F 40 °F 59 °F (2006)
Min Temperature 19 °F 23 °F 15 °F (2015)
Degree Days  
Heating Degree Days 40    
Moisture  
Dew Point 15 °F    
Average Humidity 64    
Maximum Humidity 93    
Minimum Humidity 41    
Precipitation  
Precipitation 0.00 in - - ()
Sea Level Pressure  
Sea Level Pressure 29.94 in    
Wind  
Wind Speed 11 mph (SW)    
Max Wind Speed 21 mph    
Max Gust Speed 28 mph    
Visibility 9 miles    
Events Snow    
Averages and records for this station are not official NWS values.
T = Trace of Precipitation, MM = Missing Value Source: NWS Daily Summary

Daily Weather History Graph

Daily Weather History Graph

Search for Another Location

Airport or City:

Trip Planner

Search our weather history database for the weather conditions in past years. The results will help you decide how hot, cold, wet, or windy it might be!

Date:

Astronomy

Feb. 04, 2013 Rise Set
Actual Time 7:03 AM EST 5:21 PM EST
Civil Twilight 6:35 AM EST 5:49 PM EST
Nautical Twilight 6:03 AM EST 6:22 PM EST
Astronomical Twilight 5:31 AM EST 6:53 PM EST
Moon 1:36 AM EST (2/4) 11:43 AM EST (2/4)
Length of Visible Light 11h 14m
Length of Day
10h 17m
Last Quarter, 37% of the Moon is Illuminated
Feb 4
Last Quarter
Feb 10
New
Feb 17
First Quarter
Feb 25
Full
Mar 4
Last Quarter

Hourly Weather History & Observations

Time (EST) Temp. Windchill Dew Point Humidity Pressure Visibility Wind Dir Wind Speed Gust Speed Precip Events Conditions
12:05 AM 26.6 °F 18.2 °F 24.8 °F 93% 29.85 in 1.8 mi WNW 8.1 mph - N/A Snow Light Snow
12:08 AM 26.6 °F 15.7 °F 24.8 °F 93% 29.84 in 1.8 mi West 12.7 mph 19.6 mph N/A Snow Light Snow
12:09 AM 26.6 °F 15.2 °F 24.8 °F 93% 29.85 in 2.0 mi WNW 13.8 mph 19.6 mph N/A Snow Light Snow
12:10 AM 26.6 °F 14.3 °F 24.8 °F 93% 29.84 in 2.0 mi WNW 16.1 mph 23.0 mph N/A Snow Light Snow
12:11 AM 26.6 °F 13.8 °F 24.8 °F 93% 29.84 in 2.5 mi West 17.3 mph 23.0 mph N/A Snow Light Snow
12:12 AM 26.6 °F 14.7 °F 23.0 °F 86% 29.85 in 2.5 mi West 15.0 mph 23.0 mph N/A Snow Light Snow
12:13 AM 26.6 °F 15.7 °F 23.0 °F 86% 29.85 in 3.0 mi West 12.7 mph 23.0 mph N/A Snow Light Snow
12:15 AM 26.6 °F 15.2 °F 23.0 °F 86% 29.85 in 4.0 mi West 13.8 mph 23.0 mph N/A Snow Light Snow
12:19 AM 26.6 °F 16.2 °F 21.2 °F 80% 29.85 in 9.0 mi West 11.5 mph 23.0 mph N/A Snow Light Snow
12:23 AM 26.6 °F 16.2 °F 21.2 °F 80% 29.85 in 10.0 mi West 11.5 mph 18.4 mph N/A   Mostly Cloudy
12:55 AM 27.1 °F 15.9 °F 16.2 °F 63% 29.86 in 10.0 mi West 13.8 mph 25.3 mph 0.00 in   Mostly Cloudy
1:55 AM 24.8 °F 11.1 °F 11.1 °F 56% 29.88 in 10.0 mi West 18.4 mph 25.3 mph N/A   Partly Cloudy
2:55 AM 23.4 °F 10.6 °F 8.8 °F 54% 29.89 in 10.0 mi West 15.0 mph - N/A   Clear
3:55 AM 22.6 °F 10.1 °F 8.4 °F 55% 29.91 in 10.0 mi West 13.8 mph - N/A   Clear
5:55 AM 21.2 °F 10.1 °F 9.0 °F 59% 29.96 in 10.0 mi West 10.4 mph - N/A   Clear
6:55 AM 19.9 °F 10.1 °F 8.8 °F 62% 29.97 in 10.0 mi West 8.1 mph - N/A   Clear
7:55 AM 21.7 °F 12.3 °F 9.5 °F 59% 30.00 in 10.0 mi West 8.1 mph - N/A   Clear
8:55 AM 24.8 °F 14.0 °F 10.6 °F 55% 30.03 in 10.0 mi West 11.5 mph - N/A   Clear
9:55 AM 24.8 °F 14.0 °F 10.6 °F 55% 30.04 in 10.0 mi West 11.5 mph 17.3 mph N/A   Scattered Clouds
10:55 AM 28.2 °F 14.8 °F 9.7 °F 46% 30.01 in 10.0 mi West 20.7 mph 25.3 mph N/A   Partly Cloudy
11:55 AM 28.8 °F 17.0 °F 9.1 °F 44% 30.00 in 10.0 mi West 16.1 mph 27.6 mph N/A   Partly Cloudy
12:55 PM 30.0 °F 17.9 °F 10.0 °F 43% 29.97 in 10.0 mi West 18.4 mph 23.0 mph N/A   Mostly Cloudy
1:55 PM 30.0 °F 19.1 °F 8.8 °F 41% 29.95 in 10.0 mi West 15.0 mph 20.7 mph N/A   Mostly Cloudy
2:55 PM 29.8 °F 19.3 °F 9.5 °F 43% 29.96 in 10.0 mi West 13.8 mph - N/A   Mostly Cloudy
3:55 PM 29.5 °F 21.1 °F 10.0 °F 44% 29.96 in 10.0 mi West 9.2 mph - N/A   Overcast
4:55 PM 28.9 °F 19.2 °F 10.2 °F 46% 29.96 in 10.0 mi West 11.5 mph - N/A   Overcast
5:55 PM 27.1 °F 23.2 °F 10.4 °F 49% 29.97 in 10.0 mi WSW 3.5 mph - N/A   Scattered Clouds
6:55 PM 26.2 °F - 10.6 °F 52% 29.98 in 10.0 mi Calm Calm - N/A   Scattered Clouds
7:55 PM 23.2 °F 17.2 °F 13.1 °F 65% 29.97 in 10.0 mi South 4.6 mph - N/A   Partly Cloudy
8:55 PM 24.3 °F 15.4 °F 13.6 °F 64% 29.98 in 10.0 mi South 8.1 mph - N/A   Overcast
9:55 PM 26.6 °F 20.0 °F 14.7 °F 61% 29.98 in 10.0 mi South 5.8 mph - N/A   Overcast
10:13 PM 26.6 °F 20.0 °F 14.0 °F 59% 29.97 in 10.0 mi South 5.8 mph - N/A   Overcast
10:15 PM 26.6 °F 20.0 °F 15.8 °F 64% 29.97 in 10.0 mi South 5.8 mph - N/A   Mostly Cloudy
10:21 PM 26.6 °F 21.2 °F 15.8 °F 64% 29.97 in 10.0 mi South 4.6 mph - N/A   Mostly Cloudy
10:22 PM 26.6 °F 20.0 °F 15.8 °F 64% 29.97 in 10.0 mi South 5.8 mph - N/A   Mostly Cloudy
10:24 PM 26.6 °F 20.0 °F 15.8 °F 64% 29.97 in 10.0 mi South 5.8 mph - N/A   Mostly Cloudy
10:25 PM 26.6 °F 20.0 °F 15.8 °F 64% 29.97 in 10.0 mi South 5.8 mph - N/A   Mostly Cloudy
10:26 PM 26.6 °F 21.2 °F 15.8 °F 64% 29.97 in 10.0 mi South 4.6 mph - N/A Snow Light Snow
10:41 PM 28.4 °F 24.6 °F 17.6 °F 64% 29.96 in 10.0 mi SSW 3.5 mph - N/A Snow Light Snow
10:47 PM 28.4 °F 23.3 °F 17.6 °F 64% 29.96 in 10.0 mi South 4.6 mph - N/A   Mostly Cloudy
10:53 PM 28.4 °F 24.6 °F 17.6 °F 64% 29.96 in 10.0 mi South 3.5 mph - N/A Snow Light Snow
10:55 PM 27.7 °F 22.4 °F 17.2 °F 65% 29.96 in 10.0 mi South 4.6 mph - 0.00 in Snow Light Snow
11:00 PM 28.4 °F 24.6 °F 17.6 °F 64% 29.96 in 10.0 mi South 3.5 mph - N/A   Overcast
11:16 PM 28.4 °F 22.2 °F 17.6 °F 64% 29.96 in 10.0 mi South 5.8 mph - N/A   Overcast
11:18 PM 28.4 °F 22.2 °F 15.8 °F 59% 29.96 in 10.0 mi South 5.8 mph - N/A   Overcast
11:26 PM 28.4 °F 22.2 °F 15.8 °F 59% 29.96 in 10.0 mi South 5.8 mph - N/A   Mostly Cloudy
11:28 PM 28.4 °F 21.2 °F 15.8 °F 59% 29.96 in 10.0 mi South 6.9 mph - N/A   Mostly Cloudy
11:33 PM 28.4 °F 21.2 °F 15.8 °F 59% 29.96 in 10.0 mi South 6.9 mph - N/A   Overcast
11:36 PM 28.4 °F 20.4 °F 15.8 °F 59% 29.95 in 10.0 mi South 8.1 mph - N/A   Overcast
11:55 PM 27.5 °F 19.3 °F 18.9 °F 70% 29.95 in 10.0 mi South 8.1 mph - 0.00 in   Mostly Cloudy